OBJECT AS, 57206

Orbit data source: Space-Track

You're viewing an Uncataloged Satellite

Recently launched and/or uncataloged satellites may have evolving metadata. Metadata may include but not limited to: Owner, Maufacturer, Bus, Motor, and Mission.

OBJECT AS, 57206 is a satellite in SSO that was launched on Tue, 27 Jun 2023 UTC via a SOYUZ-2-1B launch vehicle from the Vostochny Cosmodrome (VOSTO). Unknown objects in Earth's orbit typically refer to objects detected orbiting the Earth but have not yet been identified or cataloged. These objects could be anything from previously untracked satellites, spent rocket stages, debris from satellite collisions, or even natural meteoroids temporarily captured by Earth's gravity.

Loading next visibility...
Identifier
57206, 2023-091AS
Orbit
SSO
Country
Flag of TBDTBD
Related business
None
Manufacturer
Unknown
Mission
Operational Amateur Science
Bus & Motor
Unknown
Mass
Unknown
Launch date (UTC)
2023-06-27 (2 years ago)
Launch vehicle
SOYUZ-2-1B
Launch site
Vostochny Cosmodrome (VOSTO)
Object type
Unknown
Shape & HBR
Box + 2 Pan, 0.1 m
Radar Cross Section
0.080 m², Small (<0.1 m²)

Expand to show TLE details & history
Last TLE update: 7 hours ago

TLE from 7 hours ago
0 OBJECT AS
1 57206U 23091AS  25304.66372377  .00041126  00000-0  10846-2 0  9995
2 57206  97.5383   9.7869 0007107 148.4931 211.6740 15.38353953130001
Epoch: 2025-10-31T15:55Z
TLE epoch observation values (Epoch: 2025-10-31T15:55:45.733Z)
Latitude
-0.00009°
Longitude
90.64144°
Altitude
458.22 km
Speed
7.635 km/s
True Right ascension
00h 39m 08s
True Declination
0° 00' 00"
Sunlit
Object was in full shadow at epoch
Visualization orbit readout
Latitude
Unknown
Longitude
Unknown
Altitude
Unknown
Speed
Unknown
Apparent Right ascension
Unknown
Apparent Declination
Unknown
Sunlit
N/A
Visualization observer readout
Local Sidereal Time
18:18:16
Azimuth
Unknown
Elevation
Unknown
Doppler factor
Unknown
Orbital elements
Apogee altitude
452.775 km
Perigee altitude
443.072 km
Semi-major axis
6,826.061 km
Eccentricity
0.00071
Inclination
97.5383°
RAAN
9.7869°
Arg. of periapsis
148.4931°
True anomaly
211.63127°
Mean anomaly
211.674°
Eccentric anomaly
211.65263°
Mean motion
3.84847 °/min
Orbital period
93.54 mins
BSTAR
0.0010846
Loading maneuver chart data...
Computing Atmospheric mass density...
Loading historical data...
Loading historical data...
Loading historical data...
Loading historical data...
Loading historical data...
Loading historical data...
Loading historical data...

Documentation

Showing up to 5 results
|